Location: Unspecified
(0.0000°N, 0.0000°E)
Time: 06:17:28
(UTC+00:00)

Amateur Radio Satellites - All Passes

Search period start: 31 August 2014 05:47
Search period end: 01 September 2014 05:47
Location: Unspecified, 0.0000°N, 0.0000°E

Satellite Date Start Highest point End Downlink Frequencies (MHz)
Time Altitude Azimuth
RS-15 31 Aug 05:56:02 06:07:41 86° 290° (WNW) 06:18:46 29.354 - 29.394 USB, Beacon 29.352 USB
STRAND 1 31 Aug 05:58:37 06:03:19 37° 77° (ENE) 06:07:58 ?
SO-67 31 Aug 06:03:14 06:05:00 14° 101° (E) 06:06:46 435.3500 MHz FM
PANSAT 31 Aug 06:34:00 06:37:52 72° 150° (SSE) 06:41:43 not established
JAS-2 31 Aug 07:14:42 07:15:26 10° 280° (W) 07:16:11 435.800 - 435.900 CW/SSB, 435.910 FM
ISS 31 Aug 07:25:47 07:28:58 44° 305° (NW) 07:32:09 145.800 FM
HO-68 31 Aug 07:35:04 07:39:49 19° 105° (ESE) 07:44:33 435.675 MHz FM
SO-67 31 Aug 07:36:03 07:37:47 13° 281° (W) 07:39:32 435.3500 MHz FM
STRAND 1 31 Aug 07:39:59 07:42:12 13° 257° (WSW) 07:44:25 ?
Saudisat 1A 31 Aug 07:46:55 07:50:34 26° 68° (ENE) 07:54:14 436.775 MHz
PANSAT 31 Aug 08:15:30 08:18:02 17° 332° (NNW) 08:20:33 not established
RS-15 31 Aug 08:18:09 08:19:47 10° 293° (WNW) 08:21:24 29.354 - 29.394 USB, Beacon 29.352 USB
UKube-1 31 Aug 08:36:53 08:40:42 31° 102° (ESE) 08:44:33 145.840 MHz, 145.915 MHz
Oscar 11 31 Aug 08:43:19 08:46:35 21° 102° (ESE) 08:49:51 145.825 FM, Beacon 2401.500 USB
FUNcube-1 31 Aug 09:10:18 09:13:07 16° 102° (ESE) 09:15:57 145.950 - 145.970 MHz USB
KITSAT 1 31 Aug 09:13:35 09:21:32 65° 70° (ENE) 09:29:29 435.175 FM
HO-68 31 Aug 09:20:24 09:27:09 46° 285° (WNW) 09:33:57 435.675 MHz FM
Saudisat 1A 31 Aug 09:27:43 09:29:54 14° 247° (WSW) 09:32:06 436.775 MHz
UKube-1 31 Aug 10:15:49 10:16:39 11° 282° (WNW) 10:17:29 145.840 MHz, 145.915 MHz
Oscar 11 31 Aug 10:19:51 10:22:30 16° 282° (WNW) 10:25:09 145.825 FM, Beacon 2401.500 USB
FUNcube-1 31 Aug 10:45:31 10:49:14 24° 282° (WNW) 10:52:58 145.950 - 145.970 MHz USB
MaSat-1 31 Aug 11:01:50 11:05:43 47° 105° (ESE) 11:10:09 437.345 MHz
KITSAT 1 31 Aug 11:12:37 11:16:40 15° 249° (WSW) 11:20:44 435.175 FM
Oscar 19 31 Aug 12:09:44 12:11:48 12° 77° (ENE) 12:13:51 437.125 CW, 437.150 USB
Oscar 16 31 Aug 12:42:03 12:46:42 35° 77° (ENE) 12:51:21 437.025 USB, Beacon 2401.1428
ITAMSAT 1 31 Aug 12:44:02 12:45:10 11° 77° (ENE) 12:46:18 435.822 SSB
Uribyol 2 31 Aug 12:51:57 12:55:00 16° 77° (ENE) 12:58:03 436.500 FM
AO-27 31 Aug 13:10:01 13:14:17 26° 77° (ENE) 13:18:31 436.795 MHz FM
JAS-1B 31 Aug 13:35:05 13:44:39 61° 76° (ENE) 13:54:12 435.800 - 435.900 CW/SSB
SO-50 31 Aug 13:39:45 13:44:32 62° 248° (WSW) 13:49:20 436.795 FM
Gurwin Techsat 1B 31 Aug 13:40:57 13:44:58 22° 77° (ENE) 13:48:56 435.225 FM
PCSat 31 Aug 13:42:38 13:45:11 13° 110° (ESE) 13:47:44 145.825 MHz
Oscar 19 31 Aug 13:46:07 13:50:51 38° 258° (WSW) 13:55:36 437.125 CW, 437.150 USB
AO-Echo 31 Aug 14:09:18 14:14:22 49° 257° (WSW) 14:19:17 ?
ITAMSAT 1 31 Aug 14:19:28 14:24:23 44° 257° (WSW) 14:29:17 435.822 SSB
Oscar 16 31 Aug 14:23:18 14:25:46 14° 257° (WSW) 14:28:14 437.025 USB, Beacon 2401.1428
Uribyol 2 31 Aug 14:29:42 14:34:12 31° 257° (WSW) 14:38:42 436.500 FM
TMSAT-1 31 Aug 14:30:55 14:36:08 60° 78° (ENE) 14:41:19 436.925 FM
AO-7 31 Aug 14:44:36 14:50:08 20° 73° (ENE) 14:55:37 29.400 - 29.500 MHz
AO-27 31 Aug 14:49:53 14:53:31 19° 257° (WSW) 14:57:08 436.795 MHz FM
Sapphire 31 Aug 14:53:35 14:58:59 86° 109° (ESE) 15:04:22 437.095 MHz 1200 baud AX-25 AFSK
Uosat F 31 Aug 15:02:19 15:05:17 16° 77° (ENE) 15:08:13 435.120 FM
OPAL 31 Aug 15:09:38 15:12:34 15° 104° (ESE) 15:15:29 ?
Gurwin Techsat 1B 31 Aug 15:20:28 15:24:39 24° 257° (WSW) 15:28:50 435.225 FM
PCSat 31 Aug 15:23:22 15:28:21 39° 289° (WNW) 15:33:20 145.825 MHz
JAS-1B 31 Aug 15:27:33 15:34:35 23° 256° (WSW) 15:41:47 435.800 - 435.900 CW/SSB
UOSAT-12 31 Aug 15:36:51 15:41:15 47° 248° (WSW) 15:45:36 437.025 FM, 437.400 FM
AO-7 31 Aug 16:34:25 16:42:31 55° 254° (WSW) 16:50:35 29.400 - 29.500 MHz
Uosat F 31 Aug 16:39:27 16:43:47 29° 257° (WSW) 16:48:07 435.120 FM
PANSAT 31 Aug 16:43:40 16:45:06 12° 27° (NNE) 16:46:33 not established
OPAL 31 Aug 16:46:34 16:51:10 33° 284° (WNW) 16:55:44 ?
JAS-2 31 Aug 16:58:55 17:05:11 34° 79° (E) 17:10:47 435.800 - 435.900 CW/SSB, 435.910 FM
Hamsat 31 Aug 17:20:33 17:24:41 51° 79° (ENE) 17:28:51 145.90 MHz
RS-15 31 Aug 17:36:59 17:48:30 80° 70° (ENE) 18:00:35 29.354 - 29.394 USB, Beacon 29.352 USB
PANSAT 31 Aug 18:21:29 18:25:19 76° 30° (NNE) 18:29:09 not established
STRAND 1 31 Aug 18:30:51 18:35:57 86° 282° (WNW) 18:41:06 ?
JAS-2 31 Aug 18:44:21 18:49:49 24° 254° (WSW) 18:54:52 435.800 - 435.900 CW/SSB, 435.910 FM
ISS 31 Aug 19:01:22 19:04:41 75° 234° (SW) 19:08:01 145.800 FM
SO-67 31 Aug 19:19:43 19:22:33 24° 259° (W) 19:25:23 435.3500 MHz FM
HO-68 31 Aug 19:27:36 19:31:30 15° 75° (ENE) 19:35:21 435.675 MHz FM
Saudisat 1A 31 Aug 19:52:37 19:56:45 40° 112° (ESE) 20:00:51 436.775 MHz
RS-15 31 Aug 19:54:35 20:00:54 16° 246° (WSW) 20:07:24 29.354 - 29.394 USB, Beacon 29.352 USB
PANSAT 31 Aug 20:03:05 20:05:29 16° 208° (SSW) 20:07:53 not established
UKube-1 31 Aug 20:46:28 20:50:36 43° 78° (ENE) 20:54:42 145.840 MHz, 145.915 MHz
Oscar 11 31 Aug 20:52:07 20:55:49 28° 78° (ENE) 20:59:30 145.825 FM, Beacon 2401.500 USB
HO-68 31 Aug 21:11:54 21:18:51 55° 255° (WSW) 21:25:46 435.675 MHz FM
FUNcube-1 31 Aug 21:20:54 21:23:54 19° 78° (ENE) 21:26:54 145.950 - 145.970 MHz USB
KITSAT 1 31 Aug 21:21:28 21:29:35 83° 110° (ESE) 21:37:40 435.175 FM
Oscar 11 31 Aug 22:30:16 22:31:43 12° 258° (WSW) 22:33:11 145.825 FM, Beacon 2401.500 USB
MaSat-1 31 Aug 22:55:02 22:58:15 36° 71° (ENE) 23:01:02 437.345 MHz
FUNcube-1 31 Aug 22:57:41 23:00:03 15° 258° (WSW) 23:02:25 145.950 - 145.970 MHz USB
KITSAT 1 31 Aug 23:24:21 23:24:47 10° 292° (WNW) 23:25:13 435.175 FM
SO-50 01 Sep 00:16:05 00:17:35 12° 113° (ESE) 00:19:05 436.795 FM
Oscar 19 01 Sep 00:40:59 00:45:35 33° 103° (ESE) 00:50:09 437.125 CW, 437.150 USB
AO-Echo 01 Sep 01:01:05 01:04:40 21° 103° (ESE) 01:08:19 ?
Oscar 16 01 Sep 01:15:25 01:20:36 87° 282° (WNW) 01:25:47 437.025 USB, Beacon 2401.1428
ITAMSAT 1 01 Sep 01:15:40 01:20:09 30° 103° (ESE) 01:24:40 435.822 SSB
Uribyol 2 01 Sep 01:24:57 01:29:51 42° 103° (ESE) 01:34:47 436.500 FM
TMSAT-1 01 Sep 01:33:50 01:34:38 10° 103° (ESE) 01:35:25 436.925 FM
AO-27 01 Sep 01:44:16 01:49:26 71° 103° (ESE) 01:54:38 436.795 MHz FM
JAS-1B 01 Sep 01:48:29 01:54:07 59° 103° (ESE) 01:59:45 435.800 - 435.900 CW/SSB
Sapphire 01 Sep 01:48:37 01:52:11 18° 70° (ENE) 01:55:43 437.095 MHz 1200 baud AX-25 AFSK
SO-50 01 Sep 01:54:01 01:57:52 30° 292° (WNW) 02:01:45 436.795 FM
UOSAT-12 01 Sep 02:09:09 02:11:23 14° 112° (ESE) 02:13:39 437.025 FM, 437.400 FM
PCSat 01 Sep 02:16:27 02:21:31 42° 71° (ENE) 02:26:35 145.825 MHz
Gurwin Techsat 1B 01 Sep 02:18:12 02:23:26 63° 102° (ESE) 02:28:41 435.225 FM
Oscar 19 01 Sep 02:21:48 02:24:38 15° 283° (WNW) 02:27:28 437.125 CW, 437.150 USB
AO-Echo 01 Sep 02:39:44 02:43:11 20° 282° (WNW) 02:46:41 ?
ITAMSAT 1 01 Sep 02:56:09 02:59:22 17° 283° (WNW) 03:02:37 435.822 SSB
Uribyol 2 01 Sep 03:07:26 03:09:03 11° 283° (WNW) 03:10:40 436.500 FM
TMSAT-1 01 Sep 03:09:11 03:14:14 47° 282° (WNW) 03:19:19 436.925 FM
AO-7 01 Sep 03:09:14 03:16:22 33° 106° (ESE) 03:23:30 29.400 - 29.500 MHz
Uosat F 01 Sep 03:30:21 03:34:55 36° 103° (ESE) 03:39:31 435.120 FM
Sapphire 01 Sep 03:30:39 03:35:19 30° 251° (WSW) 03:40:00 437.095 MHz 1200 baud AX-25 AFSK
OPAL 01 Sep 03:39:40 03:44:11 36° 76° (ENE) 03:48:45 ?
UOSAT-12 01 Sep 03:47:28 03:51:15 27° 292° (WNW) 03:55:06 437.025 FM, 437.400 FM
PCSat 01 Sep 04:02:34 04:04:41 12° 250° (WSW) 04:06:47 145.825 MHz
PANSAT 01 Sep 04:30:53 04:32:35 12° 152° (SSE) 04:34:17 not established
JAS-2 01 Sep 04:32:19 04:35:49 16° 106° (ESE) 04:39:31 435.800 - 435.900 CW/SSB, 435.910 FM
AO-7 01 Sep 05:01:38 05:08:47 33° 286° (WNW) 05:15:59 29.400 - 29.500 MHz
Uosat F 01 Sep 05:11:25 05:13:26 12° 283° (WNW) 05:15:28 435.120 FM
RS-15 01 Sep 05:20:12 05:31:44 69° 111° (ESE) 05:42:43 29.354 - 29.394 USB, Beacon 29.352 USB
OPAL 01 Sep 05:20:36 05:22:48 13° 256° (WSW) 05:25:01 ?
STRAND 1 01 Sep 05:27:15 05:29:55 14° 77° (ENE) 05:32:35 ?
Hamsat 01 Sep 05:27:48 05:32:02 67° 101° (ESE) 05:36:15 145.90 MHz
